iso_date,epoch_date,Year,Hour,Min,DOY,POS_DOY,Lat,Lon,BP,Ts,Ta,has_bp,has_ts,has_ta,BuoyID,Buoy_Type,Buoy_Owner,Logistics,Hemisphere
2018-08-23T01:00:28Z,1534986029,2018,1,0,235.042,235.042,56.379,-152.94,-999.00,10.88,-999.0,no,yes,no,300234065480900,SVP3GI,AOML,FAIRWEATHER,North
2018-08-23T01:59:31Z,1534989571,2018,2,0,235.083,235.083,56.376,-152.943,-999.00,10.88,-999.0,no,yes,no,300234065480900,SVP3GI,AOML,FAIRWEATHER,North
2018-08-23T03:00:00Z,1534993200,2018,3,0,235.125,235.125,56.377,-152.944,-999.00,10.91,-999.0,no,yes,no,300234065480900,SVP3GI,AOML,FAIRWEATHER,North
2018-08-23T04:00:28Z,1534996829,2018,4,0,235.167,235.167,56.381,-152.941,-999.00,10.88,-999.0,no,yes,no,300234065480900,SVP3GI,AOML,FAIRWEATHER,North
2018-08-23T04:59:31Z,1535000371,2018,5,0,235.208,235.208,56.389,-152.936,-999.00,10.88,-999.0,no,yes,no,300234065480900,SVP3GI,AOML,FAIRWEATHER,North
2018-08-23T06:00:00Z,1535004000,2018,6,0,235.25,235.25,56.398,-152.924,-999.00,10.88,-999.0,no,yes,no,300234065480900,SVP3GI,AOML,FAIRWEATHER,North
2018-08-23T07:00:28Z,1535007629,2018,7,0,235.292,235.292,56.404,-152.905,-999.00,10.88,-999.0,no,yes,no,300234065480900,SVP3GI,AOML,FAIRWEATHER,North
2018-08-23T07:59:31Z,1535011171,2018,8,0,235.333,235.333,56.406,-152.882,-999.00,10.88,-999.0,no,yes,no,300234065480900,SVP3GI,AOML,FAIRWEATHER,North
2018-08-23T09:00:00Z,1535014800,2018,9,0,235.375,235.375,56.402,-152.855,-999.00,10.88,-999.0,no,yes,no,300234065480900,SVP3GI,AOML,FAIRWEATHER,North
2018-08-23T10:00:28Z,1535018429,2018,10,0,235.417,235.417,56.389,-152.833,-999.00,10.88,-999.0,no,yes,no,300234065480900,SVP3GI,AOML,FAIRWEATHER,North
2018-08-23T10:59:31Z,1535021971,2018,11,0,235.458,235.458,56.375,-152.824,-999.00,10.88,-999.0,no,yes,no,300234065480900,SVP3GI,AOML,FAIRWEATHER,North
2018-08-23T12:00:00Z,1535025600,2018,12,0,235.5,235.5,56.36,-152.824,-999.00,10.88,-999.0,no,yes,no,300234065480900,SVP3GI,AOML,FAIRWEATHER,North
2018-08-23T13:00:28Z,1535029229,2018,13,0,235.542,235.542,56.345,-152.832,-999.00,10.88,-999.0,no,yes,no,300234065480900,SVP3GI,AOML,FAIRWEATHER,North
2018-08-23T13:59:31Z,1535032771,2018,14,0,235.583,235.583,56.335,-152.843,-999.00,10.88,-999.0,no,yes,no,300234065480900,SVP3GI,AOML,FAIRWEATHER,North
2018-08-23T15:00:00Z,1535036400,2018,15,0,235.625,235.625,56.325,-152.858,-999.00,10.88,-999.0,no,yes,no,300234065480900,SVP3GI,AOML,FAIRWEATHER,North
2018-08-23T16:00:28Z,1535040029,2018,16,0,235.667,235.667,56.318,-152.875,-999.00,10.88,-999.0,no,yes,no,300234065480900,SVP3GI,AOML,FAIRWEATHER,North
2018-08-23T16:59:31Z,1535043571,2018,17,0,235.708,235.708,56.315,-152.893,-999.00,10.88,-999.0,no,yes,no,300234065480900,SVP3GI,AOML,FAIRWEATHER,North
2018-08-23T18:00:00Z,1535047200,2018,18,0,235.75,235.75,56.314,-152.91,-999.00,10.88,-999.0,no,yes,no,300234065480900,SVP3GI,AOML,FAIRWEATHER,North
2018-08-23T19:00:28Z,1535050829,2018,19,0,235.792,235.792,56.314,-152.925,-999.00,10.91,-999.0,no,yes,no,300234065480900,SVP3GI,AOML,FAIRWEATHER,North
2018-08-23T19:59:31Z,1535054371,2018,20,0,235.833,235.833,56.316,-152.937,-999.00,10.95,-999.0,no,yes,no,300234065480900,SVP3GI,AOML,FAIRWEATHER,North
2018-08-23T21:00:00Z,1535058000,2018,21,0,235.875,235.875,56.32,-152.944,-999.00,10.95,-999.0,no,yes,no,300234065480900,SVP3GI,AOML,FAIRWEATHER,North
2018-08-23T22:00:28Z,1535061629,2018,22,0,235.917,235.917,56.32,-152.948,-999.00,10.98,-999.0,no,yes,no,300234065480900,SVP3GI,AOML,FAIRWEATHER,North
2018-08-23T22:59:31Z,1535065171,2018,23,0,235.958,235.958,56.318,-152.949,-999.00,11.02,-999.0,no,yes,no,300234065480900,SVP3GI,AOML,FAIRWEATHER,North
2018-08-24T00:00:00Z,1535068800,2018,0,0,236.0,236.0,56.314,-152.952,-999.00,11.08,-999.0,no,yes,no,300234065480900,SVP3GI,AOML,FAIRWEATHER,North
2018-08-24T01:00:28Z,1535072429,2018,1,0,236.042,236.042,56.308,-152.956,-999.00,11.02,-999.0,no,yes,no,300234065480900,SVP3GI,AOML,FAIRWEATHER,North
2018-08-24T01:59:31Z,1535075971,2018,2,0,236.083,236.083,56.305,-152.961,-999.00,11.02,-999.0,no,yes,no,300234065480900,SVP3GI,AOML,FAIRWEATHER,North
2018-08-24T03:00:00Z,1535079600,2018,3,0,236.125,236.125,56.302,-152.966,-999.00,11.02,-999.0,no,yes,no,300234065480900,SVP3GI,AOML,FAIRWEATHER,North
2018-08-24T04:00:28Z,1535083229,2018,4,0,236.167,236.167,56.302,-152.969,-999.00,11.02,-999.0,no,yes,no,300234065480900,SVP3GI,AOML,FAIRWEATHER,North
2018-08-24T04:59:31Z,1535086771,2018,5,0,236.208,236.208,56.304,-152.969,-999.00,10.88,-999.0,no,yes,no,300234065480900,SVP3GI,AOML,FAIRWEATHER,North
2018-08-24T06:00:00Z,1535090400,2018,6,0,236.25,236.25,56.306,-152.965,-999.00,10.88,-999.0,no,yes,no,300234065480900,SVP3GI,AOML,FAIRWEATHER,North
2018-08-24T07:00:28Z,1535094029,2018,7,0,236.292,236.292,56.31,-152.955,-999.00,10.88,-999.0,no,yes,no,300234065480900,SVP3GI,AOML,FAIRWEATHER,North
2018-08-24T07:59:31Z,1535097571,2018,8,0,236.333,236.333,56.312,-152.943,-999.00,10.88,-999.0,no,yes,no,300234065480900,SVP3GI,AOML,FAIRWEATHER,North
2018-08-24T09:00:00Z,1535101200,2018,9,0,236.375,236.375,56.312,-152.931,-999.00,10.88,-999.0,no,yes,no,300234065480900,SVP3GI,AOML,FAIRWEATHER,North
2018-08-24T10:00:28Z,1535104829,2018,10,0,236.417,236.417,56.309,-152.921,-999.00,10.85,-999.0,no,yes,no,300234065480900,SVP3GI,AOML,FAIRWEATHER,North
2018-08-24T10:59:31Z,1535108371,2018,11,0,236.458,236.458,56.303,-152.911,-999.00,10.81,-999.0,no,yes,no,300234065480900,SVP3GI,AOML,FAIRWEATHER,North
2018-08-24T12:00:00Z,1535112000,2018,12,0,236.5,236.5,56.295,-152.905,-999.00,10.81,-999.0,no,yes,no,300234065480900,SVP3GI,AOML,FAIRWEATHER,North
2018-08-24T13:00:28Z,1535115629,2018,13,0,236.542,236.542,56.281,-152.904,-999.00,10.85,-999.0,no,yes,no,300234065480900,SVP3GI,AOML,FAIRWEATHER,North
2018-08-24T13:59:31Z,1535119171,2018,14,0,236.583,236.583,56.268,-152.914,-999.00,10.85,-999.0,no,yes,no,300234065480900,SVP3GI,AOML,FAIRWEATHER,North
2018-08-24T15:00:00Z,1535122800,2018,15,0,236.625,236.625,56.259,-152.927,-999.00,10.81,-999.0,no,yes,no,300234065480900,SVP3GI,AOML,FAIRWEATHER,North
2018-08-24T16:00:28Z,1535126429,2018,16,0,236.667,236.667,56.256,-152.943,-999.00,10.81,-999.0,no,yes,no,300234065480900,SVP3GI,AOML,FAIRWEATHER,North
2018-08-24T16:59:31Z,1535129971,2018,17,0,236.708,236.708,56.256,-152.956,-999.00,10.81,-999.0,no,yes,no,300234065480900,SVP3GI,AOML,FAIRWEATHER,North
2018-08-24T18:00:00Z,1535133600,2018,18,0,236.75,236.75,56.258,-152.966,-999.00,10.81,-999.0,no,yes,no,300234065480900,SVP3GI,AOML,FAIRWEATHER,North
2018-08-24T19:00:28Z,1535137229,2018,19,0,236.792,236.792,56.262,-152.974,-999.00,10.81,-999.0,no,yes,no,300234065480900,SVP3GI,AOML,FAIRWEATHER,North
2018-08-24T19:59:31Z,1535140771,2018,20,0,236.833,236.833,56.266,-152.979,-999.00,10.85,-999.0,no,yes,no,300234065480900,SVP3GI,AOML,FAIRWEATHER,North
2018-08-24T21:00:00Z,1535144400,2018,21,0,236.875,236.875,56.268,-152.982,-999.00,10.88,-999.0,no,yes,no,300234065480900,SVP3GI,AOML,FAIRWEATHER,North
2018-08-24T22:00:28Z,1535148029,2018,22,0,236.917,236.917,56.269,-152.985,-999.00,10.88,-999.0,no,yes,no,300234065480900,SVP3GI,AOML,FAIRWEATHER,North
2018-08-24T22:59:31Z,1535151571,2018,23,0,236.958,236.958,56.27,-152.989,-999.00,10.91,-999.0,no,yes,no,300234065480900,SVP3GI,AOML,FAIRWEATHER,North
2018-08-25T00:00:00Z,1535155200,2018,0,0,237.0,237.0,56.27,-152.99,-999.00,10.95,-999.0,no,yes,no,300234065480900,SVP3GI,AOML,FAIRWEATHER,North
2018-08-25T01:00:28Z,1535158829,2018,1,0,237.042,237.042,56.266,-152.989,-999.00,10.98,-999.0,no,yes,no,300234065480900,SVP3GI,AOML,FAIRWEATHER,North
2018-08-25T01:59:31Z,1535162371,2018,2,0,237.083,237.083,56.263,-152.992,-999.00,10.98,-999.0,no,yes,no,300234065480900,SVP3GI,AOML,FAIRWEATHER,North
2018-08-25T03:00:00Z,1535166000,2018,3,0,237.125,237.125,56.261,-153.001,-999.00,10.98,-999.0,no,yes,no,300234065480900,SVP3GI,AOML,FAIRWEATHER,North
2018-08-25T04:00:28Z,1535169629,2018,4,0,237.167,237.167,56.259,-153.012,-999.00,10.98,-999.0,no,yes,no,300234065480900,SVP3GI,AOML,FAIRWEATHER,North
2018-08-25T04:59:31Z,1535173171,2018,5,0,237.208,237.208,56.26,-153.025,-999.00,10.95,-999.0,no,yes,no,300234065480900,SVP3GI,AOML,FAIRWEATHER,North
2018-08-25T06:00:00Z,1535176800,2018,6,0,237.25,237.25,56.267,-153.037,-999.00,10.91,-999.0,no,yes,no,300234065480900,SVP3GI,AOML,FAIRWEATHER,North
2018-08-25T07:00:28Z,1535180429,2018,7,0,237.292,237.292,56.277,-153.045,-999.00,10.91,-999.0,no,yes,no,300234065480900,SVP3GI,AOML,FAIRWEATHER,North
2018-08-25T07:59:31Z,1535183971,2018,8,0,237.333,237.333,56.287,-153.047,-999.00,10.91,-999.0,no,yes,no,300234065480900,SVP3GI,AOML,FAIRWEATHER,North
2018-08-25T09:00:00Z,1535187600,2018,9,0,237.375,237.375,56.295,-153.041,-999.00,10.91,-999.0,no,yes,no,300234065480900,SVP3GI,AOML,FAIRWEATHER,North
2018-08-25T10:00:28Z,1535191229,2018,10,0,237.417,237.417,56.298,-153.032,-999.00,10.91,-999.0,no,yes,no,300234065480900,SVP3GI,AOML,FAIRWEATHER,North
2018-08-25T10:59:31Z,1535194771,2018,11,0,237.458,237.458,56.297,-153.02,-999.00,10.95,-999.0,no,yes,no,300234065480900,SVP3GI,AOML,FAIRWEATHER,North
2018-08-25T12:00:00Z,1535198400,2018,12,0,237.5,237.5,56.293,-153.011,-999.00,10.91,-999.0,no,yes,no,300234065480900,SVP3GI,AOML,FAIRWEATHER,North
2018-08-25T13:00:28Z,1535202029,2018,13,0,237.542,237.542,56.287,-153.005,-999.00,10.95,-999.0,no,yes,no,300234065480900,SVP3GI,AOML,FAIRWEATHER,North
2018-08-25T13:59:31Z,1535205571,2018,14,0,237.583,237.583,56.279,-153.006,-999.00,10.95,-999.0,no,yes,no,300234065480900,SVP3GI,AOML,FAIRWEATHER,North
2018-08-25T15:00:00Z,1535209200,2018,15,0,237.625,237.625,56.27,-153.016,-999.00,10.91,-999.0,no,yes,no,300234065480900,SVP3GI,AOML,FAIRWEATHER,North
2018-08-25T16:00:28Z,1535212829,2018,16,0,237.667,237.667,56.262,-153.031,-999.00,10.88,-999.0,no,yes,no,300234065480900,SVP3GI,AOML,FAIRWEATHER,North
2018-08-25T16:59:31Z,1535216371,2018,17,0,237.708,237.708,56.257,-153.048,-999.00,10.81,-999.0,no,yes,no,300234065480900,SVP3GI,AOML,FAIRWEATHER,North
2018-08-25T18:00:00Z,1535220000,2018,18,0,237.75,237.75,56.255,-153.066,-999.00,10.78,-999.0,no,yes,no,300234065480900,SVP3GI,AOML,FAIRWEATHER,North
2018-08-25T19:00:28Z,1535223629,2018,19,0,237.792,237.792,56.256,-153.086,-999.00,10.74,-999.0,no,yes,no,300234065480900,SVP3GI,AOML,FAIRWEATHER,North
2018-08-25T19:59:31Z,1535227171,2018,20,0,237.833,237.833,56.261,-153.101,-999.00,10.74,-999.0,no,yes,no,300234065480900,SVP3GI,AOML,FAIRWEATHER,North
2018-08-25T21:00:00Z,1535230800,2018,21,0,237.875,237.875,56.265,-153.11,-999.00,10.74,-999.0,no,yes,no,300234065480900,SVP3GI,AOML,FAIRWEATHER,North
2018-08-25T22:00:28Z,1535234429,2018,22,0,237.917,237.917,56.269,-153.117,-999.00,10.78,-999.0,no,yes,no,300234065480900,SVP3GI,AOML,FAIRWEATHER,North
2018-08-25T22:59:31Z,1535237971,2018,23,0,237.958,237.958,56.272,-153.122,-999.00,10.78,-999.0,no,yes,no,300234065480900,SVP3GI,AOML,FAIRWEATHER,North
2018-08-26T00:00:00Z,1535241600,2018,0,0,238.0,238.0,56.274,-153.122,-999.00,10.78,-999.0,no,yes,no,300234065480900,SVP3GI,AOML,FAIRWEATHER,North
2018-08-26T01:00:28Z,1535245229,2018,1,0,238.042,238.042,56.273,-153.121,-999.00,10.78,-999.0,no,yes,no,300234065480900,SVP3GI,AOML,FAIRWEATHER,North
2018-08-26T01:59:31Z,1535248771,2018,2,0,238.083,238.083,56.269,-153.121,-999.00,10.78,-999.0,no,yes,no,300234065480900,SVP3GI,AOML,FAIRWEATHER,North
2018-08-26T03:00:00Z,1535252400,2018,3,0,238.125,238.125,56.263,-153.124,-999.00,10.78,-999.0,no,yes,no,300234065480900,SVP3GI,AOML,FAIRWEATHER,North
2018-08-26T04:00:28Z,1535256029,2018,4,0,238.167,238.167,56.258,-153.132,-999.00,10.78,-999.0,no,yes,no,300234065480900,SVP3GI,AOML,FAIRWEATHER,North
2018-08-26T04:59:31Z,1535259571,2018,5,0,238.208,238.208,56.257,-153.143,-999.00,10.78,-999.0,no,yes,no,300234065480900,SVP3GI,AOML,FAIRWEATHER,North
2018-08-26T06:00:00Z,1535263200,2018,6,0,238.25,238.25,56.257,-153.158,-999.00,10.78,-999.0,no,yes,no,300234065480900,SVP3GI,AOML,FAIRWEATHER,North
2018-08-26T07:00:28Z,1535266829,2018,7,0,238.292,238.292,56.261,-153.174,-999.00,10.78,-999.0,no,yes,no,300234065480900,SVP3GI,AOML,FAIRWEATHER,North
2018-08-26T07:59:31Z,1535270371,2018,8,0,238.333,238.333,56.268,-153.183,-999.00,10.74,-999.0,no,yes,no,300234065480900,SVP3GI,AOML,FAIRWEATHER,North
2018-08-26T09:00:00Z,1535274000,2018,9,0,238.375,238.375,56.277,-153.184,-999.00,10.74,-999.0,no,yes,no,300234065480900,SVP3GI,AOML,FAIRWEATHER,North
2018-08-26T10:00:28Z,1535277629,2018,10,0,238.417,238.417,56.283,-153.156,-999.00,10.74,-999.0,no,yes,no,300234065480900,SVP3GI,AOML,FAIRWEATHER,North
2018-08-26T10:59:31Z,1535281171,2018,11,0,238.458,238.458,56.288,-153.166,-999.00,10.74,-999.0,no,yes,no,300234065480900,SVP3GI,AOML,FAIRWEATHER,North
2018-08-26T12:00:00Z,1535284800,2018,12,0,238.5,238.5,56.288,-153.152,-999.00,10.74,-999.0,no,yes,no,300234065480900,SVP3GI,AOML,FAIRWEATHER,North
2018-08-26T13:00:28Z,1535288429,2018,13,0,238.542,238.542,56.282,-153.139,-999.00,10.71,-999.0,no,yes,no,300234065480900,SVP3GI,AOML,FAIRWEATHER,North
2018-08-26T13:59:31Z,1535291971,2018,14,0,238.583,238.583,56.275,-153.128,-999.00,10.74,-999.0,no,yes,no,300234065480900,SVP3GI,AOML,FAIRWEATHER,North
2018-08-26T15:00:00Z,1535295600,2018,15,0,238.625,238.625,56.262,-153.127,-999.00,10.74,-999.0,no,yes,no,300234065480900,SVP3GI,AOML,FAIRWEATHER,North
2018-08-26T16:00:28Z,1535299229,2018,16,0,238.667,238.667,56.251,-153.137,-999.00,10.71,-999.0,no,yes,no,300234065480900,SVP3GI,AOML,FAIRWEATHER,North
2018-08-26T16:59:31Z,1535302771,2018,17,0,238.708,238.708,56.242,-153.155,-999.00,10.71,-999.0,no,yes,no,300234065480900,SVP3GI,AOML,FAIRWEATHER,North
2018-08-26T18:00:00Z,1535306400,2018,18,0,238.75,238.75,56.238,-153.176,-999.00,10.71,-999.0,no,yes,no,300234065480900,SVP3GI,AOML,FAIRWEATHER,North
2018-08-26T19:00:28Z,1535310029,2018,19,0,238.792,238.792,56.239,-153.201,-999.00,10.71,-999.0,no,yes,no,300234065480900,SVP3GI,AOML,FAIRWEATHER,North
2018-08-26T19:59:31Z,1535313571,2018,20,0,238.833,238.833,56.245,-153.222,-999.00,10.71,-999.0,no,yes,no,300234065480900,SVP3GI,AOML,FAIRWEATHER,North
2018-08-26T21:00:00Z,1535317200,2018,21,0,238.875,238.875,56.254,-153.235,-999.00,10.74,-999.0,no,yes,no,300234065480900,SVP3GI,AOML,FAIRWEATHER,North
2018-08-26T22:00:28Z,1535320829,2018,22,0,238.917,238.917,56.265,-153.242,-999.00,10.74,-999.0,no,yes,no,300234065480900,SVP3GI,AOML,FAIRWEATHER,North
2018-08-26T22:59:31Z,1535324371,2018,23,0,238.958,238.958,56.271,-153.24,-999.00,10.74,-999.0,no,yes,no,300234065480900,SVP3GI,AOML,FAIRWEATHER,North
2018-08-27T00:00:00Z,1535328000,2018,0,0,239.0,239.0,56.273,-153.233,-999.00,10.78,-999.0,no,yes,no,300234065480900,SVP3GI,AOML,FAIRWEATHER,North
2018-08-27T01:00:28Z,1535331629,2018,1,0,239.042,239.042,56.273,-153.224,-999.00,10.78,-999.0,no,yes,no,300234065480900,SVP3GI,AOML,FAIRWEATHER,North
2018-08-27T01:59:31Z,1535335171,2018,2,0,239.083,239.083,56.269,-153.217,-999.00,10.78,-999.0,no,yes,no,300234065480900,SVP3GI,AOML,FAIRWEATHER,North
2018-08-27T03:00:00Z,1535338800,2018,3,0,239.125,239.125,56.263,-153.215,-999.00,10.78,-999.0,no,yes,no,300234065480900,SVP3GI,AOML,FAIRWEATHER,North
2018-08-27T04:00:28Z,1535342429,2018,4,0,239.167,239.167,56.258,-153.215,-999.00,10.78,-999.0,no,yes,no,300234065480900,SVP3GI,AOML,FAIRWEATHER,North
2018-08-27T04:59:31Z,1535345971,2018,5,0,239.208,239.208,56.254,-153.221,-999.00,10.81,-999.0,no,yes,no,300234065480900,SVP3GI,AOML,FAIRWEATHER,North
2018-08-27T06:00:00Z,1535349600,2018,6,0,239.25,239.25,56.252,-153.229,-999.00,10.85,-999.0,no,yes,no,300234065480900,SVP3GI,AOML,FAIRWEATHER,North
2018-08-27T07:00:28Z,1535353229,2018,7,0,239.292,239.292,56.251,-153.242,-999.00,10.85,-999.0,no,yes,no,300234065480900,SVP3GI,AOML,FAIRWEATHER,North
2018-08-27T07:59:31Z,1535356771,2018,8,0,239.333,239.333,56.257,-153.251,-999.00,10.85,-999.0,no,yes,no,300234065480900,SVP3GI,AOML,FAIRWEATHER,North
2018-08-27T09:00:00Z,1535360400,2018,9,0,239.375,239.375,56.266,-153.257,-999.00,10.88,-999.0,no,yes,no,300234065480900,SVP3GI,AOML,FAIRWEATHER,North
2018-08-27T10:00:28Z,1535364029,2018,10,0,239.417,239.417,56.275,-153.254,-999.00,10.88,-999.0,no,yes,no,300234065480900,SVP3GI,AOML,FAIRWEATHER,North
2018-08-27T10:59:31Z,1535367571,2018,11,0,239.458,239.458,56.28,-153.247,-999.00,10.88,-999.0,no,yes,no,300234065480900,SVP3GI,AOML,FAIRWEATHER,North
2018-08-27T12:00:00Z,1535371200,2018,12,0,239.5,239.5,56.282,-153.237,-999.00,10.88,-999.0,no,yes,no,300234065480900,SVP3GI,AOML,FAIRWEATHER,North
2018-08-27T13:00:28Z,1535374829,2018,13,0,239.542,239.542,56.276,-153.227,-999.00,10.88,-999.0,no,yes,no,300234065480900,SVP3GI,AOML,FAIRWEATHER,North
2018-08-27T13:59:31Z,1535378371,2018,14,0,239.583,239.583,56.269,-153.223,-999.00,10.88,-999.0,no,yes,no,300234065480900,SVP3GI,AOML,FAIRWEATHER,North
2018-08-27T15:00:00Z,1535382000,2018,15,0,239.625,239.625,56.259,-153.225,-999.00,10.88,-999.0,no,yes,no,300234065480900,SVP3GI,AOML,FAIRWEATHER,North
2018-08-27T16:00:28Z,1535385629,2018,16,0,239.667,239.667,56.25,-153.235,-999.00,10.88,-999.0,no,yes,no,300234065480900,SVP3GI,AOML,FAIRWEATHER,North
2018-08-27T16:59:31Z,1535389171,2018,17,0,239.708,239.708,56.244,-153.249,-999.00,10.88,-999.0,no,yes,no,300234065480900,SVP3GI,AOML,FAIRWEATHER,North
2018-08-27T18:00:00Z,1535392800,2018,18,0,239.75,239.75,56.241,-153.267,-999.00,10.91,-999.0,no,yes,no,300234065480900,SVP3GI,AOML,FAIRWEATHER,North
2018-08-27T19:00:28Z,1535396429,2018,19,0,239.792,239.792,56.242,-153.286,-999.00,10.88,-999.0,no,yes,no,300234065480900,SVP3GI,AOML,FAIRWEATHER,North
2018-08-27T19:59:31Z,1535399971,2018,20,0,239.833,239.833,56.246,-153.303,-999.00,10.88,-999.0,no,yes,no,300234065480900,SVP3GI,AOML,FAIRWEATHER,North
2018-08-27T21:00:00Z,1535403600,2018,21,0,239.875,239.875,56.253,-153.32,-999.00,10.91,-999.0,no,yes,no,300234065480900,SVP3GI,AOML,FAIRWEATHER,North
2018-08-27T22:00:28Z,1535407229,2018,22,0,239.917,239.917,56.261,-153.332,-999.00,10.91,-999.0,no,yes,no,300234065480900,SVP3GI,AOML,FAIRWEATHER,North
2018-08-27T22:59:31Z,1535410771,2018,23,0,239.958,239.958,56.268,-153.338,-999.00,10.95,-999.0,no,yes,no,300234065480900,SVP3GI,AOML,FAIRWEATHER,North
2018-08-28T00:00:00Z,1535414400,2018,0,0,240.0,240.0,56.271,-153.341,-999.00,10.95,-999.0,no,yes,no,300234065480900,SVP3GI,AOML,FAIRWEATHER,North
2018-08-28T01:00:28Z,1535418029,2018,1,0,240.042,240.042,56.27,-153.342,-999.00,10.91,-999.0,no,yes,no,300234065480900,SVP3GI,AOML,FAIRWEATHER,North
2018-08-28T01:59:31Z,1535421571,2018,2,0,240.083,240.083,56.265,-153.343,-999.00,10.91,-999.0,no,yes,no,300234065480900,SVP3GI,AOML,FAIRWEATHER,North
2018-08-28T03:00:00Z,1535425200,2018,3,0,240.125,240.125,56.257,-153.348,-999.00,10.91,-999.0,no,yes,no,300234065480900,SVP3GI,AOML,FAIRWEATHER,North
2018-08-28T04:00:28Z,1535428829,2018,4,0,240.167,240.167,56.25,-153.359,-999.00,10.91,-999.0,no,yes,no,300234065480900,SVP3GI,AOML,FAIRWEATHER,North
2018-08-28T04:59:31Z,1535432371,2018,5,0,240.208,240.208,56.246,-153.373,-999.00,10.88,-999.0,no,yes,no,300234065480900,SVP3GI,AOML,FAIRWEATHER,North
2018-08-28T06:00:00Z,1535436000,2018,6,0,240.25,240.25,56.244,-153.388,-999.00,10.88,-999.0,no,yes,no,300234065480900,SVP3GI,AOML,FAIRWEATHER,North
2018-08-28T07:00:28Z,1535439629,2018,7,0,240.292,240.292,56.247,-153.404,-999.00,10.88,-999.0,no,yes,no,300234065480900,SVP3GI,AOML,FAIRWEATHER,North
2018-08-28T07:59:31Z,1535443171,2018,8,0,240.333,240.333,56.255,-153.417,-999.00,10.88,-999.0,no,yes,no,300234065480900,SVP3GI,AOML,FAIRWEATHER,North
2018-08-28T09:00:00Z,1535446800,2018,9,0,240.375,240.375,56.264,-153.423,-999.00,10.88,-999.0,no,yes,no,300234065480900,SVP3GI,AOML,FAIRWEATHER,North
2018-08-28T10:00:28Z,1535450429,2018,10,0,240.417,240.417,56.272,-153.423,-999.00,10.85,-999.0,no,yes,no,300234065480900,SVP3GI,AOML,FAIRWEATHER,North
2018-08-28T10:59:31Z,1535453971,2018,11,0,240.458,240.458,56.277,-153.419,-999.00,10.88,-999.0,no,yes,no,300234065480900,SVP3GI,AOML,FAIRWEATHER,North
2018-08-28T12:00:00Z,1535457600,2018,12,0,240.5,240.5,56.28,-153.409,-999.00,10.85,-999.0,no,yes,no,300234065480900,SVP3GI,AOML,FAIRWEATHER,North
2018-08-28T13:00:28Z,1535461229,2018,13,0,240.542,240.542,56.277,-153.397,-999.00,10.85,-999.0,no,yes,no,300234065480900,SVP3GI,AOML,FAIRWEATHER,North
2018-08-28T13:59:31Z,1535464771,2018,14,0,240.583,240.583,56.267,-153.388,-999.00,10.81,-999.0,no,yes,no,300234065480900,SVP3GI,AOML,FAIRWEATHER,North
2018-08-28T15:00:00Z,1535468400,2018,15,0,240.625,240.625,56.253,-153.386,-999.00,10.81,-999.0,no,yes,no,300234065480900,SVP3GI,AOML,FAIRWEATHER,North
2018-08-28T16:00:28Z,1535472029,2018,16,0,240.667,240.667,56.241,-153.395,-999.00,10.78,-999.0,no,yes,no,300234065480900,SVP3GI,AOML,FAIRWEATHER,North
2018-08-28T16:59:31Z,1535475571,2018,17,0,240.708,240.708,56.228,-153.411,-999.00,10.78,-999.0,no,yes,no,300234065480900,SVP3GI,AOML,FAIRWEATHER,North
2018-08-28T18:00:00Z,1535479200,2018,18,0,240.75,240.75,56.221,-153.437,-999.00,10.81,-999.0,no,yes,no,300234065480900,SVP3GI,AOML,FAIRWEATHER,North
2018-08-28T19:00:28Z,1535482829,2018,19,0,240.792,240.792,56.217,-153.465,-999.00,10.85,-999.0,no,yes,no,300234065480900,SVP3GI,AOML,FAIRWEATHER,North
2018-08-28T19:59:31Z,1535486371,2018,20,0,240.833,240.833,56.218,-153.493,-999.00,10.85,-999.0,no,yes,no,300234065480900,SVP3GI,AOML,FAIRWEATHER,North
2018-08-28T21:00:00Z,1535490000,2018,21,0,240.875,240.875,56.226,-153.519,-999.00,10.88,-999.0,no,yes,no,300234065480900,SVP3GI,AOML,FAIRWEATHER,North
2018-08-28T22:00:28Z,1535493629,2018,22,0,240.917,240.917,56.235,-153.535,-999.00,10.91,-999.0,no,yes,no,300234065480900,SVP3GI,AOML,FAIRWEATHER,North
2018-08-28T22:59:31Z,1535497171,2018,23,0,240.958,240.958,56.244,-153.544,-999.00,10.98,-999.0,no,yes,no,300234065480900,SVP3GI,AOML,FAIRWEATHER,North
2018-08-29T00:00:00Z,1535500800,2018,0,0,241.0,241.0,56.253,-153.549,-999.00,10.98,-999.0,no,yes,no,300234065480900,SVP3GI,AOML,FAIRWEATHER,North
2018-08-29T01:00:28Z,1535504429,2018,1,0,241.042,241.042,56.258,-153.549,-999.00,10.95,-999.0,no,yes,no,300234065480900,SVP3GI,AOML,FAIRWEATHER,North
2018-08-29T01:59:31Z,1535507971,2018,2,0,241.083,241.083,56.258,-153.548,-999.00,10.95,-999.0,no,yes,no,300234065480900,SVP3GI,AOML,FAIRWEATHER,North
2018-08-29T03:00:00Z,1535511600,2018,3,0,241.125,241.125,56.254,-153.549,-999.00,10.91,-999.0,no,yes,no,300234065480900,SVP3GI,AOML,FAIRWEATHER,North
2018-08-29T04:00:28Z,1535515229,2018,4,0,241.167,241.167,56.249,-153.552,-999.00,10.88,-999.0,no,yes,no,300234065480900,SVP3GI,AOML,FAIRWEATHER,North
2018-08-29T04:59:31Z,1535518771,2018,5,0,241.208,241.208,56.244,-153.558,-999.00,10.85,-999.0,no,yes,no,300234065480900,SVP3GI,AOML,FAIRWEATHER,North
2018-08-29T06:00:00Z,1535522400,2018,6,0,241.25,241.25,56.239,-153.565,-999.00,10.85,-999.0,no,yes,no,300234065480900,SVP3GI,AOML,FAIRWEATHER,North
2018-08-29T07:00:28Z,1535526029,2018,7,0,241.292,241.292,56.234,-153.578,-999.00,10.81,-999.0,no,yes,no,300234065480900,SVP3GI,AOML,FAIRWEATHER,North
2018-08-29T07:59:31Z,1535529571,2018,8,0,241.333,241.333,56.235,-153.595,-999.00,10.78,-999.0,no,yes,no,300234065480900,SVP3GI,AOML,FAIRWEATHER,North
2018-08-29T09:00:00Z,1535533200,2018,9,0,241.375,241.375,56.241,-153.614,-999.00,10.78,-999.0,no,yes,no,300234065480900,SVP3GI,AOML,FAIRWEATHER,North
2018-08-29T10:00:28Z,1535536829,2018,10,0,241.417,241.417,56.248,-153.625,-999.00,10.78,-999.0,no,yes,no,300234065480900,SVP3GI,AOML,FAIRWEATHER,North
2018-08-29T10:59:31Z,1535540371,2018,11,0,241.458,241.458,56.259,-153.631,-999.00,10.78,-999.0,no,yes,no,300234065480900,SVP3GI,AOML,FAIRWEATHER,North
2018-08-29T12:00:00Z,1535544000,2018,12,0,241.5,241.5,56.267,-153.629,-999.00,10.78,-999.0,no,yes,no,300234065480900,SVP3GI,AOML,FAIRWEATHER,North
2018-08-29T13:00:28Z,1535547629,2018,13,0,241.542,241.542,56.27,-153.621,-999.00,10.78,-999.0,no,yes,no,300234065480900,SVP3GI,AOML,FAIRWEATHER,North
2018-08-29T13:59:31Z,1535551171,2018,14,0,241.583,241.583,56.267,-153.609,-999.00,10.78,-999.0,no,yes,no,300234065480900,SVP3GI,AOML,FAIRWEATHER,North
2018-08-29T15:00:00Z,1535554800,2018,15,0,241.625,241.625,56.259,-153.603,-999.00,10.78,-999.0,no,yes,no,300234065480900,SVP3GI,AOML,FAIRWEATHER,North